Date String (YYYY-MM-DD hh:mm:ss) UTC,Instrument flags,Ambient pressure (hPa),Sample flow (lpm),Bypass flow (lpm),Sample temperature (°C),Ambient temperature (°C),ASC tube jacket temperature (°C),LED temperature (°C),Box temperature (°C),Sample RH (%),Span deviation,Mass concentration (μg/m³),Mass concentration (μg/m³),Mass concentration (μg/m³)
DateTimeUTC,F1_M11,P_M11,Q1_M11,Q2_M11,T1_M11,T2_M11,T3_M11,T4_M11,T5_M11,U1_M11,ZSPAN_M11,X0_M11,X2_M11,X1_M11
2022-11-18 22:00:00,,0828.2,5.00,0.00,24.8,23.5,00.0,33.6,26.8,07.5,0000.0,0011.98,0008.50,0007.92
2022-11-18 22:01:00,,0828.2,5.01,0.00,24.8,23.5,00.0,33.6,26.8,07.5,0000.0,0011.99,0008.49,0007.92
2022-11-18 22:02:00,,0828.2,5.01,0.00,24.8,23.5,00.0,33.6,26.7,07.5,0000.0,0012.62,0008.49,0007.93
2022-11-18 22:03:00,,0828.1,5.01,0.00,24.8,23.5,00.0,33.6,26.7,07.4,0000.0,0012.97,0008.51,0007.95
2022-11-18 22:04:00,,0828.1,5.01,0.00,24.8,23.5,00.0,33.6,26.8,07.4,0000.0,0013.33,0008.50,0007.96
2022-11-18 22:05:00,,0828.1,5.00,0.00,24.8,23.5,00.0,33.6,26.8,07.4,0000.0,0013.38,0008.51,0007.96
2022-11-18 22:06:00,,0828.1,4.99,0.00,24.8,23.5,00.0,33.6,26.8,07.4,0000.0,0013.46,0008.54,0007.97
2022-11-18 22:07:00,,0828.1,5.01,0.00,24.8,23.5,00.0,33.6,26.8,07.4,0000.0,0013.48,0008.53,0007.97
2022-11-18 22:08:00,,0828.1,5.00,0.00,24.8,23.5,00.0,33.6,26.8,07.4,0000.0,0013.41,0008.51,0007.98
2022-11-18 22:09:00,,0828.1,5.00,0.00,24.8,23.5,00.0,33.6,26.8,07.4,0000.0,0013.36,0008.53,0008.04
2022-11-18 22:10:00,,0828.2,4.99,0.00,24.8,23.5,00.0,33.7,26.8,07.4,0000.0,0012.83,0008.58,0008.11
2022-11-18 22:11:00,,0828.3,4.99,0.00,24.8,23.5,00.0,33.7,26.8,07.4,0000.0,0013.33,0008.64,0008.17
2022-11-18 22:12:00,,0828.1,5.01,0.00,24.8,23.5,00.0,33.7,26.7,07.4,0000.0,0013.35,0008.68,0008.23
2022-11-18 22:13:00,,0828.1,4.99,0.00,24.8,23.5,00.0,33.7,26.7,07.4,0000.0,0013.08,0008.74,0008.28
2022-11-18 22:14:00,,0828.1,4.98,0.00,24.8,23.5,00.0,33.7,26.7,07.4,0000.0,0012.51,0008.81,0008.33
2022-11-18 22:15:00,,0828.1,5.01,0.00,24.8,23.5,00.0,33.7,26.7,07.4,0000.0,0012.02,0008.87,0008.39
2022-11-18 22:16:00,,0828.1,5.01,0.00,24.8,23.5,00.0,33.7,26.8,07.4,0000.0,0011.98,0008.91,0008.45
2022-11-18 22:17:00,,0828.1,4.98,0.00,24.8,23.5,00.0,33.7,26.7,07.4,0000.0,0012.00,0008.96,0008.52
2022-11-18 22:18:00,,0828.1,5.00,0.00,24.8,23.5,00.0,33.7,26.8,07.4,0000.0,0012.06,0009.03,0008.58
2022-11-18 22:19:00,,0828.2,5.01,0.00,24.8,23.5,00.0,33.7,26.7,07.4,0000.0,0012.17,0009.08,0008.62
2022-11-18 22:20:00,,0828.1,4.99,0.00,24.8,23.5,00.0,33.7,26.7,07.4,0000.0,0012.33,0009.11,0008.61
2022-11-18 22:21:00,,0828.1,5.00,0.00,24.8,23.5,00.0,33.7,26.8,07.4,0000.0,0012.59,0009.13,0008.60
2022-11-18 22:22:00,,0828.2,5.01,0.00,24.8,23.5,00.0,33.7,26.7,07.4,0000.0,0012.17,0009.10,0008.59
2022-11-18 22:23:00,,0828.2,4.99,0.00,24.8,23.5,00.0,33.7,26.7,07.4,0000.0,0012.24,0009.11,0008.58
2022-11-18 22:24:00,,0828.2,5.00,0.00,24.8,23.5,00.0,33.7,26.8,07.4,0000.0,0012.34,0009.14,0008.57
2022-11-18 22:25:00,,0828.2,5.02,0.00,24.8,23.5,00.0,33.7,26.8,07.4,0000.0,0012.41,0009.15,0008.55
2022-11-18 22:26:00,,0828.1,4.99,0.00,24.8,23.5,00.0,33.7,26.7,07.4,0000.0,0012.39,0009.12,0008.51
2022-11-18 22:27:00,,0828.3,5.00,0.00,24.8,23.5,00.0,33.7,26.7,07.4,0000.0,0012.42,0009.07,0008.46
2022-11-18 22:28:00,,0828.3,5.01,0.00,24.8,23.5,00.0,33.7,26.7,07.4,0000.0,0012.41,0009.01,0008.42
2022-11-18 22:29:00,,0828.2,4.99,0.00,24.8,23.5,00.0,33.7,26.7,07.4,0000.0,0012.41,0008.97,0008.37
2022-11-18 22:30:00,,0828.2,4.99,0.00,24.8,23.5,00.0,33.7,26.7,07.4,0000.0,0012.49,0008.93,0008.34
2022-11-18 22:31:00,,0828.1,5.01,0.00,24.8,23.5,00.0,33.7,26.7,07.4,0000.0,0012.71,0008.87,0008.31
2022-11-18 22:32:00,,0828.2,4.99,0.00,24.8,23.5,00.0,33.7,26.7,07.4,0000.0,0012.47,0008.82,0008.27
2022-11-18 22:33:00,,0828.3,5.00,0.00,24.8,23.5,00.0,33.7,26.7,07.4,0000.0,0012.36,0008.78,0008.24
2022-11-18 22:34:00,,0828.2,5.01,0.00,24.8,23.5,00.0,33.7,26.7,07.4,0000.0,0012.57,0008.75,0008.23
2022-11-18 22:35:00,,0828.2,4.98,0.00,24.8,23.5,00.0,33.7,26.7,07.4,0000.0,0012.70,0008.71,0008.22
2022-11-18 22:36:00,,0828.2,5.02,0.00,24.8,23.5,00.0,33.7,26.7,07.4,0000.0,0012.74,0008.71,0008.22
2022-11-18 22:37:00,,0828.2,4.99,0.00,24.8,23.5,00.0,33.7,26.7,07.4,0000.0,0013.09,0008.70,0008.22
2022-11-18 22:38:00,,0828.1,5.01,0.00,24.8,23.4,00.0,33.7,26.7,07.3,0000.0,0013.30,0008.72,0008.24
2022-11-18 22:39:00,,0828.1,5.01,0.00,24.8,23.4,00.0,33.7,26.7,07.3,0000.0,0013.31,0008.72,0008.23
2022-11-18 22:40:00,,0828.2,4.98,0.00,24.8,23.4,00.0,33.7,26.7,07.3,0000.0,0013.88,0008.68,0008.20
2022-11-18 22:41:00,,0828.1,5.01,0.00,24.8,23.4,00.0,33.7,26.7,07.3,0000.0,0013.84,0008.68,0008.19
2022-11-18 22:42:00,,0828.2,5.01,0.00,24.8,23.4,00.0,33.7,26.7,07.4,0000.0,0013.66,0008.68,0008.18
2022-11-18 22:43:00,,0828.1,4.99,0.00,24.8,23.4,00.0,33.7,26.7,07.4,0000.0,0013.59,0008.64,0008.14
2022-11-18 22:44:00,,0828.1,5.01,0.00,24.8,23.4,00.0,33.7,26.7,07.4,0000.0,0013.81,0008.64,0008.12
2022-11-18 22:45:00,,0828.1,5.01,0.00,24.8,23.4,00.0,33.7,26.7,07.4,0000.0,0013.62,0008.59,0008.07
2022-11-18 22:46:00,,0828.1,4.98,0.00,24.8,23.4,00.0,33.7,26.7,07.3,0000.0,0013.57,0008.54,0008.03
2022-11-18 22:47:00,,0828.2,5.01,0.00,24.8,23.4,00.0,33.7,26.7,07.4,0000.0,0013.53,0008.48,0007.99
2022-11-18 22:48:00,,0828.2,5.00,0.00,24.8,23.4,00.0,33.7,26.7,07.4,0000.0,0013.54,0008.45,0007.96
2022-11-18 22:49:00,,0828.2,4.99,0.00,24.8,23.4,00.0,33.7,26.6,07.4,0000.0,0013.39,0008.38,0007.92
2022-11-18 22:50:00,,0828.3,5.01,0.00,24.8,23.4,00.0,33.7,26.6,07.4,0000.0,0014.38,0008.38,0007.90
2022-11-18 22:51:00,,0828.2,5.00,0.00,24.8,23.4,00.0,33.7,26.7,07.4,0000.0,0013.83,0008.40,0007.91
2022-11-18 22:52:00,,0828.1,5.00,0.00,24.8,23.4,00.0,33.7,26.7,07.4,0000.0,0013.65,0008.40,0007.92
2022-11-18 22:53:00,,0828.1,5.00,0.00,24.7,23.4,00.0,33.7,26.7,07.4,0000.0,0013.67,0008.39,0007.93
2022-11-18 22:54:00,,0828.2,4.99,0.00,24.7,23.4,00.0,33.6,26.7,07.4,0000.0,0014.03,0008.44,0007.98
2022-11-18 22:55:00,,0828.1,5.00,0.00,24.7,23.4,00.0,33.6,26.6,07.4,0000.0,0013.79,0008.44,0008.00
2022-11-18 22:56:00,,0828.1,5.01,0.00,24.7,23.3,00.0,33.6,26.6,07.4,0000.0,0013.85,0008.49,0008.03
2022-11-18 22:57:00,,0828.2,4.99,0.00,24.7,23.3,00.0,33.6,26.6,07.4,0000.0,0013.42,0008.49,0008.04
2022-11-18 22:58:00,,0828.2,5.00,0.00,24.7,23.3,00.0,33.6,26.6,07.4,0000.0,0013.30,0008.50,0008.04
2022-11-18 22:59:00,,0828.2,5.01,0.00,24.7,23.2,00.0,33.6,26.5,07.4,0000.0,0013.02,0008.49,0008.02
